Showing default

RTU MIREA 1, 61785

Orbit data source: Space-Track

RTU MIREA 1, 61785 is a Commonwealth of Independent States-origin payload satellite in SSO that was launched on Mon, 04 Nov 2024 UTC via a SOYUZ-2-1B launch vehicle from the Vostochny Cosmodrome (VOSTO). Payload-class satellites include a variety of spacecraft equipped with specific instruments for various scientific and technological missions. These include communications satellites like Starlink; space stations such as the ISS; scientific satellites like the Hubble; Earth observation satellites from companies like Planet Labs, Umbra, and HawkEye 360; GPS; miniature CubeSats for education and research; and military/defense satellites.

Loading next visibility...
Identifier
61785, 2024-199BC
Orbit
SSO
Country
Flag of CISCIS
Related business
Manufacturer
MIREA
Mission
Operational Amateur Technology
Bus & Motor
CUBESAT 3U, Unknown motor
Mass
4 kg wet, 4 kg dry
Launch date (UTC)
2024-11-04 (1 year ago)
Launch vehicle
SOYUZ-2-1B
Launch site
Vostochny Cosmodrome (VOSTO)
Object type
Payload
Rocket body
Debris
Shape & HBR
Box, 0.1 m
Radar Cross Section
0.035 m², Small (<0.1 m²)

Expand to show TLE details & history
Last TLE update: 3 hours ago

TLE from 3 hours ago
0 RTU MIREA 1
1 61785U 24199BC  25302.58037347  .00033697  00000-0  82813-3 0  9994
2 61785  97.3278 170.8808 0014520  49.1194 311.1307 15.40470649 98741
Epoch: 2025-10-29T13:55Z
TLE epoch observation values (Epoch: 2025-10-29T13:55:44.267Z)
Latitude
-0.00013°
Longitude
-76.2051°
Altitude
441.33 km
Speed
7.651 km/s
True Right ascension
11h 23m 31s
True Declination
0° 00' 00"
Sunlit
Object was in daylight at epoch
Visualization orbit readout
Latitude
Unknown
Longitude
Unknown
Altitude
Unknown
Speed
Unknown
Apparent Right ascension
Unknown
Apparent Declination
Unknown
Sunlit
N/A
Visualization observer readout
Local Sidereal Time
12:58:25
Azimuth
Unknown
Elevation
Unknown
Doppler factor
Unknown
Orbital elements
Apogee altitude
451.557 km
Perigee altitude
431.752 km
Semi-major axis
6,819.791 km
Eccentricity
0.00145
Inclination
97.3278°
RAAN
170.8808°
Arg. of periapsis
49.1194°
True anomaly
311.00523°
Mean anomaly
311.1307°
Eccentric anomaly
311.06798°
Mean motion
3.85378 °/min
Orbital period
93.41 mins
BSTAR
0.00082813
Loading maneuver chart data...
Computing Atmospheric mass density...
Loading historical data...
Loading historical data...
Loading historical data...
Loading historical data...
Loading historical data...
Loading historical data...
Loading historical data...

Documentation

Showing up to 5 results
|